AF5XJ Weather Reports


Display with metric or nautical units.
time (UTC)temp
F
wind
direction
speed
MPH
gust
MPH
rain 1hr
in
rain 24hr
in
rain mn
in
humidity
%
barometer
mb
20260906211528 102 143 4.0 9.0 0.00 0.00 0.00 29
20260906210546 101 139 4.0 8.0 0.00 0.00 0.00 30
20260906205527 102 196 5.0 6.0 0.00 0.00 0.00 30
20260906204526 100 141 7.0 10.0 0.00 0.00 0.00 31
20260906203525 101 118 5.0 9.0 0.00 0.00 0.00 32
20260906202525 99 92 5.0 7.0 0.00 0.00 0.00 33
20260906201526 99 131 5.0 8.0 0.00 0.00 0.00 35
20260906200526 98 141 4.0 6.0 0.00 0.00 0.00 35
20260906195527 98 157 4.0 6.0 0.00 0.00 0.00 36
20260906194605 99 150 6.0 9.0 0.00 0.00 0.00 35
20260906193527 100 160 6.0 10.0 0.00 0.00 0.00 34
20260906192528 100 117 4.0 8.0 0.00 0.00 0.00 35
20260906191525 100 105 3.0 6.0 0.00 0.00 0.00 36
20260906190526 98 135 5.0 7.0 0.00 0.00 0.00 36
20260906185549 98 173 3.0 7.0 0.00 0.00 0.00 37
20260906184546 97 167 6.0 10.0 0.00 0.00 0.00 38
20260906183545 97 130 6.0 7.0 0.00 0.00 0.00 39
20260906182526 98 164 5.0 7.0 0.00 0.00 0.00 37
20260906181606 98 115 3.0 6.0 0.00 0.00 0.00 37
20260906180526 98 125 5.0 7.0 0.00 0.00 0.00 38
20260906175525 97 160 4.0 6.0 0.00 0.00 0.00 39
20260906174527 96 136 5.0 7.0 0.00 0.00 0.00 40
20260906173525 96 151 5.0 7.0 0.00 0.00 0.00 40
20260906172527 96 151 6.0 9.0 0.00 0.00 0.00 40
20260906171525 96 109 6.0 9.0 0.00 0.00 0.00 39
20260906170528 96 165 5.0 9.0 0.00 0.00 0.00 40
20260906165525 96 153 6.0 9.0 0.00 0.00 0.00 40
20260906164525 97 150 5.0 8.0 0.00 0.00 0.00 39
20260906163527 97 163 4.0 6.0 0.00 0.00 0.00 40
20260906162525 96 166 6.0 8.0 0.00 0.00 0.00 40
20260906161525 96 169 4.0 5.0 0.00 0.00 0.00 40
20260906160526 95 151 5.0 7.0 0.00 0.00 0.00 41
20260906155525 97 152 4.0 6.0 0.00 0.00 0.00 39
20260906154525 98 172 2.0 4.0 0.00 0.00 0.00 38
20260906153628 97 232 3.0 3.0 0.00 0.00 0.00 39
20260906152525 97 340 2.0 3.0 0.00 0.00 0.00 40
20260906151529 95 222 2.0 3.0 0.00 0.00 0.00 42
20260906150525 94 283 1.0 2.0 0.00 0.00 0.00 44
20260906145528 93 221 2.0 3.0 0.00 0.00 0.00 46
20260906144525 92 200 2.0 3.0 0.00 0.00 0.00 47
20260906143525 91 217 2.0 3.0 0.00 0.00 0.00 48
20260906142525 89 169 2.0 2.0 0.00 0.00 0.00 50
20260906141529 88 182 2.0 3.0 0.00 0.00 0.00 52
20260906140545 86 133 2.0 3.0 0.00 0.00 0.00 54
20260906135525 84 135 2.0 2.0 0.00 0.00 0.00 57
20260906134526 82 158 2.0 3.0 0.00 0.00 0.00 60
20260906133525 81 140 3.0 3.0 0.00 0.00 0.00 61
20260906132546 80 144 3.0 4.0 0.00 0.00 0.00 62
20260906131545 79 146 3.0 4.0 0.00 0.00 0.00 63
20260906130527 79 143 2.0 3.0 0.00 0.00 0.00 64
20260906125525 78 144 2.0 2.0 0.00 0.00 0.00 64
20260906124528 77 126 2.0 3.0 0.00 0.00 0.00 65
20260906123526 77 118 2.0 2.0 0.00 0.00 0.00 65
20260906122525 77 121 2.0 3.0 0.00 0.00 0.00 65
20260906121525 77 118 2.0 2.0 0.00 0.00 0.00 65
20260906120525 77 100 2.0 3.0 0.00 0.00 0.00 64
20260906115547 78 112 2.0 2.0 0.00 0.00 0.00 64
20260906114550 78 108 2.0 2.0 0.00 0.00 0.00 63
20260906113532 78 134 1.0 2.0 0.00 0.00 0.00 64
20260906112526 78 41 1.0 1.0 0.00 0.00 0.00 63
20260906111526 78 80 2.0 3.0 0.00 0.00 0.00 63
20260906110525 79 99 2.0 3.0 0.00 0.00 0.00 62
20260906105527 79 104 2.0 2.0 0.00 0.00 0.00 63
20260906104525 79 123 2.0 3.0 0.00 0.00 0.00 62
20260906103529 79 121 2.0 3.0 0.00 0.00 0.00 63
20260906102526 79 106 2.0 2.0 0.00 0.00 0.00 63
20260906101545 80 22 2.0 2.0 0.00 0.00 0.00 62
20260906100525 80 236 3.0 3.0 0.00 0.00 0.00 63
20260906095525 80 211 2.0 2.0 0.00 0.00 0.00 61
20260906094525 80 146 2.0 2.0 0.00 0.00 0.00 61
20260906093530 80 245 2.0 2.0 0.00 0.00 0.00 61
20260906092526 79 304 2.0 2.0 0.00 0.00 0.00 62
20260906091525 79 359 2.0 3.0 0.00 0.00 0.00 61
20260906090526 81 46 2.0 3.0 0.00 0.00 0.00 59
20260906085545 81 238 2.0 3.0 0.00 0.00 0.00 58
20260906084527 81 212 3.0 5.0 0.00 0.00 0.00 57
20260906083525 81 212 3.0 4.0 0.00 0.00 0.00 57
20260906082527 81 210 3.0 5.0 0.00 0.00 0.00 57
20260906081525 81 181 3.0 4.0 0.00 0.00 0.00 57
20260906080525 81 164 2.0 3.0 0.00 0.00 0.00 55
20260906075528 82 152 3.0 3.0 0.00 0.00 0.00 54
20260906074529 82 157 3.0 4.0 0.00 0.00 0.00 53
20260906073525 83 164 3.0 4.0 0.00 0.00 0.00 53
20260906072526 83 166 3.0 4.0 0.00 0.00 0.00 52
20260906071547 83 169 2.0 3.0 0.00 0.00 0.00 52
20260906070525 83 175 2.0 3.0 0.00 0.00 0.00 52
20260906065606 84 163 3.0 4.0 0.00 0.00 0.00 52
20260906064546 84 158 3.0 4.0 0.00 0.00 0.00 51
20260906063526 84 164 4.0 5.0 0.00 0.00 0.00 50
20260906062525 85 173 4.0 5.0 0.00 0.00 0.00 50
20260906061548 85 165 5.0 6.0 0.00 0.00 0.00 49
20260906060525 85 163 4.0 6.0 0.00 0.00 0.00 50
20260906055549 85 162 4.0 5.0 0.00 0.00 0.00 50
20260906054525 85 170 4.0 5.0 0.00 0.00 0.00 51
20260906053529 85 167 4.0 5.0 0.00 0.00 0.00 50
20260906052525 85 166 4.0 6.0 0.00 0.00 0.00 50
20260906051525 85 159 4.0 5.0 0.00 0.00 0.00 50
20260906050545 85 161 5.0 5.0 0.00 0.00 0.00 50
20260906045527 85 165 4.0 6.0 0.00 0.00 0.00 50
20260906044526 85 160 4.0 4.0 0.00 0.00 0.00 49
20260906043525 85 160 3.0 3.0 0.00 0.00 0.00 49
20260906042547 86 144 3.0 3.0 0.00 0.00 0.00 49
20260906041545 86 141 2.0 3.0 0.00 0.00 0.00 48
20260906040548 86 151 2.0 3.0 0.00 0.00 0.00 48
20260906035525 86 154 2.0 3.0 0.00 0.00 0.00 48
20260906034528 86 154 2.0 3.0 0.00 0.00 0.00 47
20260906033525 87 154 2.0 3.0 0.00 0.00 0.00 47
20260906032525 87 141 2.0 2.0 0.00 0.00 0.00 46
20260906031525 88 135 2.0 3.0 0.00 0.00 0.00 46
20260906030525 88 143 3.0 4.0 0.00 0.00 0.00 45
20260906025525 88 137 3.0 4.0 0.00 0.00 0.00 44
20260906024525 89 138 4.0 5.0 0.00 0.00 0.00 44
20260906023529 89 145 3.0 4.0 0.00 0.00 0.00 44
20260906022525 89 145 3.0 3.0 0.00 0.00 0.00 43
20260906021526 89 137 3.0 3.0 0.00 0.00 0.00 43
20260906020546 90 138 3.0 4.0 0.00 0.00 0.00 42
20260906015527 90 140 3.0 4.0 0.00 0.00 0.00 41
20260906014525 91 115 3.0 4.0 0.00 0.00 0.00 40
20260906013527 92 149 3.0 4.0 0.00 0.00 0.00 39
20260906012525 92 143 3.0 4.0 0.00 0.00 0.00 39
20260906011524 92 144 4.0 5.0 0.00 0.00 0.00 38
20260906010525 93 139 3.0 3.0 0.00 0.00 0.00 37
20260906005525 94 155 3.0 3.0 0.00 0.00 0.00 36
20260906004525 95 142 4.0 5.0 0.00 0.00 0.00 35
20260906003525 95 154 5.0 7.0 0.00 0.00 0.00 35
20260906002525 96 150 5.0 6.0 0.00 0.00 0.00 34
20260906001528 97 146 5.0 7.0 0.00 0.00 0.00 34
20260906000526 97 134 5.0 8.0 0.00 0.00 0.00 34
20260905235525 97 163 5.0 8.0 0.00 0.00 0.00 33
20260905234547 97 169 6.0 8.0 0.00 0.00 0.00 33
20260905233525 97 151 6.0 8.0 0.00 0.00 0.00 33
20260905232530 98 129 6.0 8.0 0.00 0.00 0.00 33
20260905231525 98 142 6.0 8.0 0.00 0.00 0.00 33
20260905230525 98 157 7.0 9.0 0.00 0.00 0.00 32
20260905225525 98 162 6.0 7.0 0.00 0.00 0.00 32
20260905224525 99 157 6.0 8.0 0.00 0.00 0.00 32
20260905223525 99 129 4.0 7.0 0.00 0.00 0.00 32
20260905222525 100 152 6.0 8.0 0.00 0.00 0.00 32
20260905221535 99 163 6.0 9.0 0.00 0.00 0.00 31
20260905220525 100 174 4.0 8.0 0.00 0.00 0.00 31
20260905215527 99 165 6.0 8.0 0.00 0.00 0.00 33
20260905214525 99 185 3.0 6.0 0.00 0.00 0.00 33
20260905213546 99 156 6.0 9.0 0.00 0.00 0.00 33
20260905212525 100 144 5.0 7.0 0.00 0.00 0.00 31